Regional Weather Roundup
Issued by NWS

Home | Current Version | Previous Version | Graphics & Text | Print | Product List | Glossary On
Versions: 1 2 3 4 5 6 7 8 9 10 11 12 13 14 15 16 17 18 19 20 21 22 23 24 25 26 27 28 29 30 31 32 33 34 35 36 37 38 39 40 41 42 43 44 45 46 47 48 49 50
000
ASUS43 KFSD 300010
RWRSD

WEATHER ROUNDUP FOR SOUTH DAKOTA
NATIONAL WEATHER SERVICE SIOUX FALLS SD
700 PM CDT SUN MAY 29 2016

NOTE: "FAIR" INDICATES FEW OR NO CLOUDS BELOW 12,000 FEET WITH NO
SIGNIFICANT WEATHER AND/OR OBSTRUCTIONS TO VISIBILITY.


SDZ001>005-009-010-012>017-300100-
NORTHWEST AND NORTH CENTRAL SOUTH DAKOTA

CITY           SKY/WX    TMP DP  RH WIND       PRES   REMARKS
BUFFALO          N/A     77  42  28 SE8       29.90F
FAITH            N/A     70  47  43 NE12      29.99F
MOBRIDGE       CLOUDY    65  55  70 SE9       29.97F
$$

SDZ012>016-024>037-041>051-057-063-072>074-300100-
SOUTHWEST AND SOUTH CENTRAL SOUTH DAKOTA

CITY           SKY/WX    TMP DP  RH WIND       PRES   REMARKS
RAPID CTY ARPT SUNNY     74  51  44 E9        29.97F
PIERRE         SUNNY     75  54  47 SE12      29.95F
CUSTER         SUNNY     70  32  24 W12       30.08S
ELLSWORTH AFB  SUNNY     75  50  41 E8        29.97F
PHILIP         CLOUDY    74  57  55 E8        29.95F
PINE RIDGE     SUNNY     79  43  27 CALM      29.97F
WINNER         FAIR      78  54  43 SE12      29.97F
$$

SDZ004>011-016>023-039-040-300100-
NORTHEAST SOUTH DAKOTA

CITY           SKY/WX    TMP DP  RH WIND       PRES   REMARKS
ABERDEEN       SUNNY     79  45  29 W7        29.97S
WATERTOWN      SUNNY     76  45  33 NW9       29.98F
BROOKINGS      SUNNY     75  49  39 NW12      30.00S
SISSETON         N/A     79  41  25 NW14      29.94S
$$

SDZ017-020-022-023-036>040-048>070-300100-
SOUTHEAST SOUTH DAKOTA

CITY           SKY/WX    TMP DP  RH WIND       PRES   REMARKS
SIOUX FALLS    SUNNY     77  48  35 NW6       29.99F
HURON          SUNNY     77  50  38 VRB3      29.97F
CHAMBERLAIN    SUNNY     77  60  55 SE7       29.98F
MITCHELL       SUNNY     78  52  40 SE5       29.99F
YANKTON        SUNNY     79  54  41 NE5       29.97F
$$

ABBREVIATIONS USED IN REMARKS
   TC - TEMPERATURE IN CELSIUS
  WCI - WIND CHILL INDEX
   HX - HEAT INDEX
  VSB - VISIBILITY





USA.gov is the U.S. government's official web portal to all federal, state and local government web resources and services.